Вернуться в каталог

STARLINK-4781

АктивенСвязьVLEO
NORAD 53861·PAYLOAD·🇺🇸 United States

Запущен Sep 19, 2022 с Cape Canaveral Space Force Station

Loading…

Ближайшие Пролёты (ближайшие 24 часа)

TLE

СвежийSource: CelesTrak SupGP

Эпоха: Sep 15, 2026, 02:50 UTC

1 53861C 22114AV  26258.11854167  .00052346  00000+0  16833-2 0  2589
2 53861  53.1564 142.8261 0001224  85.3205   5.5324 15.31675762    18

Отслеживайте STARLINK-4781 в реальном времени с AllMySat

Download on the App Store